Flag for U.S.A. Weather past 2 weeks in Cincinnati, Ohio, U.S.A.

Now
62 °F

Sunny.


Feels Like: 62 °F
Forecast: 52 / 76 °F
Wind: No wind

Location: Cincinnati Municipal Airport Lunken Field

Current Time: Sep 30, 2014 at 11:16:11 AM

Latest Report: Sep 30, 2014 at 9:53 AM


Visibility: 10 mi

Pressure: 29.95 "Hg

Humidity: 83%

Dew point: 57 °F

Location of CincinnatiLocation

Historic Weather in Cincinnati — Graph

°F

Cincinnati temperature yesterday

Maximum temperature yesterday: 83 °F (at 2:53 PM)
Minimum temperature yesterday: 56 °F (at 11:53 PM)
Average temperature yesterday: 68 °F

Past Weeks' High & Low Weather Summary

 TemperatureHumidityPressure
High83 °F (Sep 29, 2:53 PM)100% (Sep 15, 9:55 AM)30.38 "Hg (Sep 15, 9:55 AM)
Low41 °F (Sep 23, 6:54 AM)30% (Sep 21, 2:53 PM)29.80 "Hg (Sep 21, 5:53 AM)
Average61 °F77%30.13 "Hg
* Reported Sep 15 9:55 AM — Sep 30 9:53 AM, Cincinnati, Weather by CustomWeather, © 2014

Note: Actual official high and low records may vary slightly from our data, if they occured in-between our weather recording intervals... More about our weather records

Advertising

Cincinnati weather history for previous 24 hours

 ConditionsComfort  
Time TempWeatherWind HumidityBarometerVisibility
9:53 AM
Sep 30
62 °FSunny.No wind83%29.95 "Hg10 mi
8:53 AM55 °FFog.No wind100%29.96 "Hg3 mi
7:57 AM50 °FFog.No wind100%29.95 "Hg0 mi
6:53 AM52 °FClear.No wind97%29.93 "Hg7 mi
5:53 AM52 °FClear.No wind97%29.92 "Hg8 mi
4:53 AM50 °FFog.No wind100%29.92 "Hg2 mi
3:50 AM52 °FFog.No wind97%29.93 "Hg5 mi
3:03 AM53 °FFog.No wind96%29.94 "Hg3 mi
1:53 AM54 °FFog.No wind97%29.93 "Hg4 mi
12:53 AM53 °FClear.No wind100%29.93 "Hg9 mi
11:53 PM
Sep 29
56 °FClear.No wind93%29.93 "Hg10 mi
10:53 PM57 °FClear.No wind93%29.94 "Hg10 mi
9:53 PM59 °FClear.No wind87%29.94 "Hg10 mi
8:53 PM63 °FClear.No wind78%29.93 "Hg10 mi
7:53 PM65 °FSunny.No wind73%29.92 "Hg10 mi
6:53 PM79 °FSunny.6 mph34%29.92 "Hg10 mi
5:53 PM82 °FSunny.9 mph31%29.91 "Hg10 mi
4:53 PM83 °FSunny.5 mph30%29.92 "Hg10 mi
3:53 PM82 °FSunny.3 mph33%29.93 "Hg10 mi
2:53 PM83 °FPassing clouds.5 mph34%29.94 "Hg10 mi
1:53 PM81 °FSunny.7 mph41%29.97 "Hg10 mi
12:53 PM79 °FSunny.8 mph47%29.99 "Hg10 mi
11:53 AM75 °FSunny.No wind60%30.01 "Hg10 mi
11:02 AM66 °FPassing clouds.No wind100%30.03 "Hg10 mi
Weather by CustomWeather, © 2014

See weather overviewHow to use our weather pages